| time (UTC) | temp C | wind direction | speed KPH | gust KPH | rain 1hr cm | rain 24hr cm | rain mn cm | humidity % | barometer mb |
| 20260507150056 | 15 | 3 | 3.2 | 11.3 | 0.00 | 0.91 | 0.71 | 63 | 1006.4 |
| 20260507145556 | 15 | 22 | 3.2 | 11.3 | 0.00 | 0.91 | 0.71 | 67 | 1006.5 |
| 20260507145054 | 14 | 209 | 1.6 | 11.3 | 0.00 | 0.91 | 0.71 | 67 | 1006.5 |
| 20260507144552 | 14 | 351 | 0.0 | 12.9 | 0.00 | 0.91 | 0.71 | 70 | 1006.5 |
| 20260507144055 | 14 | 360 | 3.2 | 12.9 | 0.00 | 0.91 | 0.71 | 69 | 1006.5 |
| 20260507143552 | 14 | 7 | 3.2 | 11.3 | 0.00 | 0.91 | 0.71 | 72 | 1006.4 |
| 20260507143053 | 13 | 344 | 1.6 | 11.3 | 0.00 | 0.91 | 0.71 | 72 | 1006.4 |
| 20260507142552 | 13 | 343 | 0.0 | 11.3 | 0.00 | 0.91 | 0.71 | 74 | 1006.5 |
| 20260507142050 | 13 | 9 | 1.6 | 9.7 | 0.00 | 0.91 | 0.71 | 76 | 1006.7 |
| 20260507141551 | 13 | 214 | 0.0 | 8.0 | 0.00 | 0.91 | 0.71 | 77 | 1006.7 |
| 20260507141049 | 13 | 345 | 0.0 | 8.0 | 0.00 | 0.91 | 0.71 | 78 | 1006.6 |
| 20260507140551 | 13 | 10 | 1.6 | 12.9 | 0.00 | 0.91 | 0.71 | 76 | 1006.6 |
| 20260507140051 | 12 | 4 | 3.2 | 12.9 | 0.00 | 0.91 | 0.71 | 76 | 1006.8 |
| 20260507135549 | 12 | 360 | 0.0 | 8.0 | 0.00 | 0.91 | 0.71 | 80 | 1006.9 |
| 20260507135046 | 12 | 241 | 1.6 | 8.0 | 0.00 | 0.91 | 0.71 | 82 | 1006.8 |
| 20260507134550 | 12 | 339 | 0.0 | 8.0 | 0.00 | 0.91 | 0.71 | 84 | 1006.9 |
| 20260507134045 | 12 | 360 | 1.6 | 8.0 | 0.00 | 0.91 | 0.71 | 82 | 1006.8 |
| 20260507133545 | 12 | 26 | 1.6 | 6.4 | 0.00 | 0.91 | 0.71 | 84 | 1006.9 |
| 20260507133045 | 11 | 4 | 0.0 | 4.8 | 0.00 | 0.91 | 0.71 | 86 | 1006.9 |
| 20260507132544 | 11 | 351 | 0.0 | 4.8 | 0.00 | 0.91 | 0.71 | 85 | 1006.8 |
| 20260507132048 | 11 | 357 | 0.0 | 4.8 | 0.00 | 0.91 | 0.71 | 86 | 1006.8 |
| 20260507131644 | 11 | 334 | 1.6 | 4.8 | 0.00 | 0.91 | 0.71 | 85 | 1006.9 |
| 20260507131044 | 11 | 147 | 0.0 | 3.2 | 0.00 | 0.91 | 0.71 | 87 | 1007.0 |
| 20260507130544 | 11 | 4 | 0.0 | 3.2 | 0.00 | 0.91 | 0.71 | 88 | 1007.1 |
| 20260507130055 | 11 | 197 | 0.0 | 4.8 | 0.00 | 0.91 | 0.71 | 89 | 1007.1 |
| 20260507125542 | 11 | 358 | 0.0 | 4.8 | 0.00 | 0.91 | 0.71 | 89 | 1006.6 |
| 20260507125041 | 11 | 6 | 1.6 | 4.8 | 0.00 | 0.91 | 0.71 | 88 | 1006.6 |
| 20260507124548 | 11 | 11 | 0.0 | 1.6 | 0.00 | 0.91 | 0.71 | 89 | 1006.8 |
| 20260507124041 | 11 | 360 | 0.0 | 4.8 | 0.00 | 0.91 | 0.71 | 90 | 1006.8 |
| 20260507123541 | 11 | 360 | 0.0 | 4.8 | 0.00 | 0.91 | 0.71 | 91 | 1006.7 |
| 20260507123042 | 11 | 9 | 0.0 | 0.0 | 0.00 | 0.91 | 0.71 | 91 | 1006.7 |
| 20260507122542 | 11 | 9 | 0.0 | 3.2 | 0.00 | 0.91 | 0.71 | 92 | 1006.8 |
| 20260507122041 | 11 | 10 | 0.0 | 3.2 | 0.00 | 0.91 | 0.71 | 91 | 1006.9 |
| 20260507121541 | 11 | 8 | 0.0 | 0.0 | 0.03 | 0.91 | 0.71 | 92 | 1006.8 |
| 20260507121041 | 10 | 8 | 0.0 | 0.0 | 0.03 | 0.91 | 0.71 | 92 | 1006.9 |
| 20260507120541 | 10 | 8 | 0.0 | 0.0 | 0.05 | 0.91 | 0.71 | 92 | 1007.0 |
| 20260507120043 | 10 | 8 | 0.0 | 0.0 | 0.05 | 0.91 | 0.71 | 92 | 1007.0 |
| 20260507115539 | 10 | 8 | 0.0 | 0.0 | 0.08 | 0.91 | 0.71 | 92 | 1007.1 |
| 20260507115040 | 10 | 4 | 0.0 | 1.6 | 0.08 | 0.91 | 0.71 | 92 | 1007.1 |
| 20260507114541 | 10 | 4 | 0.0 | 1.6 | 0.08 | 0.91 | 0.71 | 92 | 1006.8 |
| 20260507114038 | 10 | 4 | 0.0 | 1.6 | 0.08 | 0.91 | 0.71 | 92 | 1006.6 |
| 20260507113538 | 10 | 4 | 0.0 | 0.0 | 0.08 | 0.91 | 0.71 | 92 | 1006.8 |
| 20260507113038 | 10 | 143 | 0.0 | 0.0 | 0.08 | 0.91 | 0.71 | 92 | 1006.5 |
| 20260507112540 | 10 | 152 | 0.0 | 1.6 | 0.08 | 0.91 | 0.71 | 92 | 1006.5 |
| 20260507112037 | 10 | 152 | 0.0 | 1.6 | 0.08 | 0.91 | 0.71 | 92 | 1006.4 |
| 20260507111537 | 10 | 152 | 0.0 | 3.2 | 0.08 | 0.89 | 0.69 | 92 | 1006.6 |
| 20260507111039 | 10 | 162 | 0.0 | 3.2 | 0.08 | 0.89 | 0.69 | 92 | 1006.6 |
| 20260507110539 | 10 | 169 | 0.0 | 1.6 | 0.05 | 0.86 | 0.66 | 92 | 1006.7 |
| 20260507110040 | 10 | 175 | 0.0 | 4.8 | 0.05 | 0.86 | 0.66 | 91 | 1006.9 |
| 20260507105535 | 10 | 340 | 0.0 | 4.8 | 0.03 | 0.84 | 0.64 | 91 | 1006.8 |
| 20260507105039 | 10 | 5 | 0.0 | 4.8 | 0.05 | 0.84 | 0.64 | 91 | 1006.4 |
| 20260507104534 | 10 | 355 | 0.0 | 4.8 | 0.08 | 0.84 | 0.64 | 91 | 1006.7 |
| 20260507104034 | 10 | 5 | 1.6 | 4.8 | 0.08 | 0.84 | 0.64 | 91 | 1006.5 |
| 20260507103535 | 10 | 9 | 1.6 | 9.7 | 0.08 | 0.84 | 0.64 | 91 | 1006.1 |
| 20260507103034 | 10 | 8 | 0.0 | 11.3 | 0.08 | 0.84 | 0.64 | 92 | 1006.2 |
| 20260507102532 | 10 | 5 | 4.8 | 11.3 | 0.10 | 0.84 | 0.64 | 92 | 1006.1 |
| 20260507102032 | 10 | 2 | 1.6 | 8.0 | 0.10 | 0.84 | 0.64 | 93 | 1005.8 |
| 20260507101532 | 10 | 5 | 0.0 | 8.0 | 0.08 | 0.81 | 0.61 | 93 | 1005.7 |
| 20260507101034 | 10 | 5 | 0.0 | 0.0 | 0.08 | 0.81 | 0.61 | 93 | 1005.7 |
| 20260507100531 | 10 | 12 | 0.0 | 0.0 | 0.08 | 0.81 | 0.61 | 93 | 1006.0 |
| 20260507100037 | 10 | 12 | 0.0 | 0.0 | 0.08 | 0.81 | 0.61 | 93 | 1006.1 |
| 20260507095530 | 10 | 357 | 0.0 | 0.0 | 0.08 | 0.81 | 0.61 | 93 | 1006.0 |
| 20260507095030 | 10 | 357 | 0.0 | 0.0 | 0.08 | 0.79 | 0.58 | 93 | 1006.0 |
| 20260507094529 | 10 | 356 | 0.0 | 0.0 | 0.05 | 0.76 | 0.56 | 93 | 1006.2 |
| 20260507094027 | 10 | 353 | 0.0 | 0.0 | 0.08 | 0.76 | 0.56 | 93 | 1006.1 |
| 20260507093527 | 10 | 353 | 0.0 | 0.0 | 0.08 | 0.76 | 0.56 | 93 | 1005.9 |
| 20260507093027 | 10 | 350 | 0.0 | 1.6 | 0.05 | 0.71 | 0.53 | 92 | 1005.8 |
| 20260507092526 | 10 | 342 | 0.0 | 1.6 | 0.05 | 0.71 | 0.53 | 92 | 1005.8 |
| 20260507092028 | 10 | 17 | 0.0 | 4.8 | 0.08 | 0.71 | 0.53 | 92 | 1005.9 |
| 20260507091525 | 10 | 9 | 0.0 | 4.8 | 0.08 | 0.71 | 0.53 | 92 | 1005.9 |
| 20260507091025 | 10 | 358 | 0.0 | 4.8 | 0.08 | 0.71 | 0.53 | 92 | 1005.7 |
| 20260507090524 | 10 | 26 | 0.0 | 4.8 | 0.10 | 0.71 | 0.53 | 92 | 1005.4 |
| 20260507090024 | 11 | 356 | 1.6 | 4.8 | 0.10 | 0.71 | 0.53 | 91 | 1005.3 |
| 20260507085523 | 11 | 359 | 1.6 | 4.8 | 0.10 | 0.71 | 0.53 | 91 | 1005.3 |
| 20260507085023 | 11 | 3 | 0.0 | 4.8 | 0.10 | 0.71 | 0.51 | 91 | 1005.8 |
| 20260507084522 | 11 | 5 | 0.0 | 4.8 | 0.15 | 0.71 | 0.51 | 92 | 1006.0 |
| 20260507084021 | 11 | 19 | 0.0 | 4.8 | 0.20 | 0.69 | 0.48 | 91 | 1005.7 |
| 20260507083521 | 11 | 357 | 0.0 | 4.8 | 0.33 | 0.69 | 0.48 | 91 | 1005.5 |
| 20260507083020 | 11 | 1 | 0.0 | 6.4 | 0.41 | 0.69 | 0.48 | 91 | 1005.4 |
| 20260507082519 | 11 | 17 | 0.0 | 8.0 | 0.43 | 0.69 | 0.48 | 91 | 1005.5 |
| 20260507082018 | 11 | 5 | 0.0 | 14.5 | 0.46 | 0.66 | 0.46 | 90 | 1005.4 |
| 20260507081534 | 11 | 337 | 6.4 | 14.5 | 0.46 | 0.66 | 0.46 | 90 | 1005.1 |
| 20260507081016 | 11 | 1 | 3.2 | 12.9 | 0.46 | 0.66 | 0.46 | 90 | 1005.3 |
| 20260507080518 | 12 | 346 | 4.8 | 12.9 | 0.43 | 0.64 | 0.43 | 91 | 1005.4 |
| 20260507080013 | 12 | 353 | 1.6 | 9.7 | 0.43 | 0.64 | 0.43 | 91 | 1005.3 |
| 20260507075516 | 12 | 358 | 1.6 | 8.0 | 0.41 | 0.61 | 0.41 | 91 | 1005.4 |
| 20260507075011 | 12 | 358 | 3.2 | 6.4 | 0.38 | 0.58 | 0.38 | 91 | 1005.3 |
| 20260507074522 | 12 | 11 | 0.0 | 9.7 | 0.33 | 0.53 | 0.33 | 91 | 1005.5 |
| 20260507074008 | 13 | 360 | 0.0 | 9.7 | 0.25 | 0.46 | 0.25 | 91 | 1005.4 |
| 20260507073507 | 13 | 14 | 1.6 | 9.7 | 0.13 | 0.33 | 0.13 | 90 | 1005.8 |
| 20260507073006 | 13 | 3 | 0.0 | 4.8 | 0.08 | 0.28 | 0.08 | 89 | 1005.4 |
| 20260507072508 | 13 | 12 | 0.0 | 3.2 | 0.03 | 0.23 | 0.03 | 87 | 1004.8 |
| 20260507072007 | 14 | 360 | 0.0 | 9.7 | 0.00 | 0.20 | 0.00 | 87 | 1004.8 |
| 20260507071507 | 14 | 16 | 0.0 | 9.7 | 0.00 | 0.20 | 0.00 | 87 | 1004.4 |
| 20260507071005 | 14 | 353 | 0.0 | 4.8 | 0.00 | 0.20 | 0.00 | 87 | 1004.1 |
| 20260507070504 | 14 | 8 | 0.0 | 3.2 | 0.00 | 0.20 | 0.00 | 87 | 1004.0 |
| 20260507070009 | 14 | 5 | 0.0 | 0.0 | 0.00 | 0.20 | 0.00 | 87 | 1004.0 |
| 20260507065505 | 14 | 5 | 0.0 | 0.0 | 0.00 | 0.20 | 0.00 | 87 | 1004.0 |
| 20260507065004 | 14 | 5 | 0.0 | 1.6 | 0.00 | 0.20 | 0.00 | 87 | 1003.9 |
| 20260507064501 | 14 | 360 | 0.0 | 6.4 | 0.00 | 0.20 | 0.00 | 87 | 1004.2 |
| 20260507064001 | 14 | 360 | 0.0 | 6.4 | 0.00 | 0.20 | 0.00 | 88 | 1004.3 |
| 20260507063501 | 14 | 19 | 0.0 | 1.6 | 0.00 | 0.20 | 0.00 | 88 | 1004.5 |
| 20260507063100 | 14 | 19 | 0.0 | 4.8 | 0.00 | 0.20 | 0.00 | 89 | 1004.5 |
| 20260507062559 | 14 | 355 | 0.0 | 6.4 | 0.00 | 0.20 | 0.00 | 90 | 1004.4 |
| 20260507062058 | 14 | 162 | 1.6 | 6.4 | 0.00 | 0.20 | 0.00 | 92 | 1004.6 |
| 20260507061606 | 14 | 192 | 0.0 | 0.0 | 0.00 | 0.20 | 0.00 | 93 | 1004.5 |
| 20260507061058 | 14 | 196 | 0.0 | 0.0 | 0.00 | 0.20 | 0.00 | 93 | 1004.3 |
| 20260507060558 | 14 | 195 | 0.0 | 0.0 | 0.00 | 0.20 | 0.00 | 93 | 1004.3 |
| 20260507060057 | 14 | 196 | 0.0 | 0.0 | 0.00 | 0.20 | 0.00 | 93 | 1004.4 |
| 20260507055555 | 14 | 196 | 0.0 | 0.0 | 0.00 | 0.20 | 0.00 | 93 | 1004.5 |
| 20260507055054 | 14 | 196 | 0.0 | 0.0 | 0.00 | 0.20 | 0.00 | 93 | 1004.7 |
| 20260507054636 | 14 | 196 | 0.0 | 0.0 | 0.00 | 0.20 | 0.00 | 93 | 1004.8 |
| 20260507054054 | 14 | 196 | 0.0 | 0.0 | 0.00 | 0.20 | 0.00 | 93 | 1004.9 |
| 20260507053554 | 14 | 196 | 0.0 | 0.0 | 0.00 | 0.20 | 0.00 | 93 | 1004.7 |
| 20260507053054 | 14 | 196 | 0.0 | 0.0 | 0.00 | 0.20 | 0.00 | 93 | 1004.8 |
| 20260507052552 | 14 | 196 | 0.0 | 0.0 | 0.00 | 0.20 | 0.00 | 93 | 1005.0 |
| 20260507052052 | 14 | 196 | 0.0 | 0.0 | 0.00 | 0.20 | 0.00 | 93 | 1005.1 |
| 20260507051552 | 14 | 196 | 0.0 | 0.0 | 0.00 | 0.20 | 0.00 | 93 | 1005.1 |
| 20260507051051 | 13 | 196 | 0.0 | 0.0 | 0.00 | 0.20 | 0.00 | 93 | 1005.2 |
| 20260507050551 | 13 | 196 | 0.0 | 0.0 | 0.00 | 0.20 | 0.00 | 93 | 1005.3 |
| 20260507050056 | 13 | 196 | 0.0 | 0.0 | 0.00 | 0.20 | 0.00 | 93 | 1005.3 |
| 20260507045551 | 13 | 196 | 0.0 | 0.0 | 0.00 | 0.20 | 0.00 | 93 | 1005.2 |
| 20260507045051 | 13 | 196 | 0.0 | 0.0 | 0.00 | 0.20 | 0.00 | 93 | 1005.3 |
| 20260507044554 | 13 | 196 | 0.0 | 0.0 | 0.00 | 0.20 | 0.00 | 93 | 1005.1 |
| 20260507044050 | 13 | 195 | 0.0 | 0.0 | 0.00 | 0.20 | 0.00 | 93 | 1005.2 |
| 20260507043550 | 13 | 196 | 0.0 | 0.0 | 0.00 | 0.20 | 0.00 | 93 | 1005.3 |
| 20260507043050 | 13 | 195 | 0.0 | 0.0 | 0.00 | 0.20 | 0.00 | 93 | 1005.3 |
| 20260507042549 | 13 | 195 | 0.0 | 0.0 | 0.00 | 0.20 | 0.00 | 93 | 1005.4 |
| 20260507042049 | 13 | 195 | 0.0 | 0.0 | 0.00 | 0.20 | 0.00 | 93 | 1005.3 |
| 20260507041559 | 13 | 211 | 0.0 | 0.0 | 0.00 | 0.20 | 0.00 | 93 | 1005.1 |
| 20260507041048 | 13 | 198 | 0.0 | 0.0 | 0.00 | 0.20 | 0.00 | 93 | 1005.1 |
| 20260507040547 | 13 | 197 | 0.0 | 0.0 | 0.00 | 0.20 | 0.00 | 93 | 1005.2 |
| 20260507040047 | 13 | 199 | 0.0 | 0.0 | 0.00 | 0.20 | 0.00 | 93 | 1005.0 |
| 20260507035546 | 13 | 197 | 0.0 | 0.0 | 0.00 | 0.20 | 0.20 | 93 | 1005.3 |
| 20260507035046 | 13 | 201 | 0.0 | 0.0 | 0.00 | 0.20 | 0.20 | 93 | 1005.4 |
| 20260507034555 | 14 | 198 | 0.0 | 0.0 | 0.00 | 0.20 | 0.20 | 93 | 1005.2 |
| 20260507034045 | 14 | 199 | 0.0 | 0.0 | 0.00 | 0.20 | 0.20 | 93 | 1005.1 |
| 20260507033544 | 13 | 199 | 0.0 | 0.0 | 0.00 | 0.20 | 0.20 | 93 | 1005.2 |
| 20260507033046 | 13 | 200 | 0.0 | 0.0 | 0.00 | 0.20 | 0.20 | 93 | 1005.5 |
| 20260507032544 | 13 | 200 | 0.0 | 0.0 | 0.00 | 0.20 | 0.20 | 93 | 1005.3 |
| 20260507032043 | 13 | 200 | 0.0 | 0.0 | 0.00 | 0.20 | 0.20 | 93 | 1005.5 |
| 20260507031600 | 13 | 199 | 0.0 | 0.0 | 0.00 | 0.20 | 0.20 | 93 | 1005.6 |
| 20260507031043 | 13 | 199 | 0.0 | 0.0 | 0.00 | 0.20 | 0.20 | 93 | 1005.7 |
| 20260507030544 | 13 | 203 | 0.0 | 0.0 | 0.00 | 0.20 | 0.20 | 93 | 1005.4 |
| 20260507030051 | 13 | 203 | 0.0 | 0.0 | 0.00 | 0.20 | 0.20 | 93 | 1005.3 |
| 20260507025542 | 13 | 203 | 0.0 | 0.0 | 0.00 | 0.20 | 0.20 | 93 | 1005.4 |
| 20260507025042 | 13 | 205 | 0.0 | 1.6 | 0.00 | 0.20 | 0.20 | 93 | 1005.3 |
| 20260507024545 | 13 | 199 | 0.0 | 1.6 | 0.00 | 0.20 | 0.20 | 93 | 1005.3 |
| 20260507024043 | 13 | 195 | 0.0 | 4.8 | 0.00 | 0.20 | 0.20 | 93 | 1005.4 |
| 20260507023542 | 13 | 201 | 0.0 | 4.8 | 0.00 | 0.20 | 0.20 | 93 | 1005.4 |
| 20260507023041 | 13 | 199 | 0.0 | 4.8 | 0.00 | 0.20 | 0.20 | 93 | 1005.3 |
| 20260507022542 | 13 | 187 | 0.0 | 6.4 | 0.00 | 0.20 | 0.20 | 93 | 1005.5 |
| 20260507022042 | 13 | 228 | 0.0 | 6.4 | 0.00 | 0.20 | 0.20 | 92 | 1005.6 |
| 20260507021541 | 13 | 200 | 0.0 | 6.4 | 0.00 | 0.20 | 0.20 | 92 | 1005.5 |
| 20260507021041 | 13 | 199 | 1.6 | 4.8 | 0.00 | 0.20 | 0.20 | 92 | 1005.6 |
| 20260507020542 | 13 | 207 | 0.0 | 4.8 | 0.00 | 0.20 | 0.20 | 92 | 1005.4 |
| 20260507020040 | 13 | 191 | 0.0 | 6.4 | 0.00 | 0.20 | 0.20 | 92 | 1005.4 |
| 20260507015539 | 13 | 190 | 0.0 | 6.4 | 0.00 | 0.20 | 0.20 | 92 | 1005.5 |
| 20260507015038 | 13 | 228 | 0.0 | 4.8 | 0.00 | 0.20 | 0.20 | 92 | 1005.6 |
| 20260507014547 | 13 | 191 | 0.0 | 6.4 | 0.00 | 0.20 | 0.20 | 92 | 1005.6 |
| 20260507014038 | 13 | 204 | 0.0 | 6.4 | 0.00 | 0.20 | 0.20 | 92 | 1005.6 |
| 20260507013537 | 13 | 195 | 0.0 | 4.8 | 0.00 | 0.20 | 0.20 | 92 | 1005.7 |
| 20260507013037 | 13 | 201 | 0.0 | 3.2 | 0.00 | 0.20 | 0.20 | 92 | 1005.7 |
| 20260507012538 | 13 | 209 | 0.0 | 3.2 | 0.00 | 0.20 | 0.20 | 92 | 1005.7 |
| 20260507012038 | 13 | 193 | 0.0 | 3.2 | 0.00 | 0.20 | 0.20 | 92 | 1005.8 |
| 20260507011538 | 13 | 190 | 0.0 | 3.2 | 0.00 | 0.20 | 0.20 | 92 | 1005.9 |
| 20260507011037 | 13 | 195 | 0.0 | 3.2 | 0.00 | 0.20 | 0.20 | 92 | 1005.9 |
| 20260507010537 | 13 | 211 | 0.0 | 3.2 | 0.00 | 0.20 | 0.20 | 92 | 1006.0 |
| 20260507010508 | 13 | 192 | 0.0 | 1.6 | 0.00 | 0.20 | 0.20 | 92 | 1006.1 |
| 20260507010041 | 13 | 206 | 0.0 | 3.2 | 0.00 | 0.20 | 0.20 | 92 | 1006.1 |
| 20260507005536 | 13 | 192 | 0.0 | 3.2 | 0.00 | 0.20 | 0.20 | 92 | 1006.1 |
| 20260507005035 | 13 | 200 | 0.0 | 3.2 | 0.00 | 0.20 | 0.20 | 92 | 1006.1 |
| 20260507004535 | 13 | 195 | 0.0 | 6.4 | 0.00 | 0.20 | 0.20 | 92 | 1006.0 |
| 20260507004035 | 13 | 199 | 0.0 | 6.4 | 0.00 | 0.20 | 0.20 | 92 | 1006.1 |
| 20260507003538 | 13 | 207 | 0.0 | 6.4 | 0.00 | 0.20 | 0.20 | 92 | 1006.0 |
| 20260507003038 | 13 | 198 | 0.0 | 4.8 | 0.00 | 0.20 | 0.20 | 92 | 1005.9 |
| 20260507002535 | 13 | 185 | 0.0 | 6.4 | 0.00 | 0.20 | 0.20 | 92 | 1005.8 |
| 20260507002035 | 13 | 192 | 1.6 | 6.4 | 0.00 | 0.20 | 0.20 | 92 | 1005.8 |
| 20260507001537 | 13 | 216 | 1.6 | 4.8 | 0.00 | 0.20 | 0.20 | 92 | 1005.8 |
| 20260507001034 | 13 | 216 | 0.0 | 6.4 | 0.00 | 0.20 | 0.20 | 92 | 1005.7 |
| 20260507000536 | 13 | 194 | 1.6 | 9.7 | 0.00 | 0.20 | 0.20 | 92 | 1005.8 |
| 20260507000038 | 13 | 189 | 1.6 | 9.7 | 0.00 | 0.20 | 0.20 | 92 | 1005.7 |
| 20260506235533 | 13 | 201 | 3.2 | 14.5 | 0.00 | 0.20 | 0.20 | 92 | 1005.8 |
| 20260506235033 | 13 | 156 | 3.2 | 14.5 | 0.00 | 0.20 | 0.20 | 93 | 1005.8 |
| 20260506234533 | 13 | 195 | 1.6 | 8.0 | 0.00 | 0.20 | 0.20 | 93 | 1005.8 |
| 20260506234034 | 13 | 172 | 1.6 | 6.4 | 0.00 | 0.20 | 0.20 | 93 | 1005.8 |
| 20260506233532 | 13 | 212 | 0.0 | 8.0 | 0.00 | 0.20 | 0.20 | 93 | 1005.7 |
| 20260506233034 | 13 | 196 | 0.0 | 11.3 | 0.00 | 0.20 | 0.20 | 93 | 1005.8 |
| 20260506232531 | 13 | 196 | 3.2 | 11.3 | 0.03 | 0.20 | 0.20 | 92 | 1005.7 |
| 20260506232031 | 13 | 185 | 1.6 | 11.3 | 0.03 | 0.20 | 0.20 | 92 | 1005.7 |
| 20260506231531 | 13 | 195 | 1.6 | 9.7 | 0.03 | 0.20 | 0.20 | 93 | 1005.8 |
| 20260506231031 | 13 | 196 | 1.6 | 9.7 | 0.03 | 0.20 | 0.20 | 92 | 1005.8 |
| 20260506230531 | 13 | 196 | 1.6 | 8.0 | 0.05 | 0.20 | 0.20 | 92 | 1005.7 |
| 20260506230031 | 13 | 178 | 1.6 | 12.9 | 0.08 | 0.20 | 0.20 | 92 | 1005.7 |
| 20260506225531 | 13 | 190 | 0.0 | 12.9 | 0.10 | 0.20 | 0.20 | 92 | 1005.8 |
| 20260506225029 | 13 | 178 | 3.2 | 12.9 | 0.10 | 0.20 | 0.20 | 92 | 1005.7 |
| 20260506224529 | 13 | 202 | 1.6 | 11.3 | 0.10 | 0.20 | 0.20 | 92 | 1005.7 |
| 20260506224030 | 13 | 190 | 3.2 | 12.9 | 0.10 | 0.20 | 0.20 | 92 | 1005.6 |
| 20260506223528 | 13 | 199 | 1.6 | 12.9 | 0.10 | 0.20 | 0.20 | 92 | 1005.6 |
| 20260506223027 | 13 | 171 | 0.0 | 9.7 | 0.10 | 0.20 | 0.20 | 92 | 1005.6 |
| 20260506222527 | 13 | 188 | 1.6 | 8.0 | 0.08 | 0.18 | 0.18 | 92 | 1005.7 |
| 20260506222026 | 13 | 167 | 1.6 | 8.0 | 0.08 | 0.18 | 0.18 | 91 | 1005.7 |
| 20260506221525 | 13 | 199 | 1.6 | 8.0 | 0.10 | 0.18 | 0.18 | 91 | 1005.6 |
| 20260506221028 | 13 | 169 | 1.6 | 12.9 | 0.08 | 0.15 | 0.15 | 91 | 1005.7 |
| 20260506220523 | 13 | 193 | 0.0 | 12.9 | 0.08 | 0.15 | 0.15 | 91 | 1005.8 |
| 20260506220024 | 13 | 185 | 4.8 | 12.9 | 0.05 | 0.13 | 0.13 | 91 | 1005.8 |
| 20260506215525 | 14 | 211 | 0.0 | 11.3 | 0.03 | 0.10 | 0.10 | 91 | 1005.9 |
| 20260506215023 | 14 | 193 | 1.6 | 14.5 | 0.03 | 0.10 | 0.10 | 91 | 1006.0 |
| 20260506214520 | 14 | 197 | 3.2 | 14.5 | 0.03 | 0.10 | 0.10 | 90 | 1006.3 |
| 20260506214019 | 14 | 151 | 3.2 | 12.9 | 0.05 | 0.10 | 0.10 | 90 | 1006.1 |
| 20260506213518 | 14 | 162 | 1.6 | 8.0 | 0.05 | 0.10 | 0.10 | 90 | 1006.2 |
| 20260506213018 | 14 | 192 | 1.6 | 11.3 | 0.05 | 0.10 | 0.10 | 90 | 1006.2 |
| 20260506212516 | 14 | 181 | 3.2 | 11.3 | 0.05 | 0.10 | 0.10 | 90 | 1006.2 |
| 20260506212016 | 14 | 184 | 4.8 | 11.3 | 0.05 | 0.10 | 0.10 | 90 | 1006.3 |
| 20260506211514 | 14 | 198 | 3.2 | 9.7 | 0.03 | 0.08 | 0.08 | 89 | 1006.4 |
| 20260506211015 | 14 | 203 | 1.6 | 9.7 | 0.03 | 0.08 | 0.08 | 89 | 1006.4 |
| 20260506210517 | 14 | 178 | 1.6 | 9.7 | 0.03 | 0.08 | 0.08 | 89 | 1006.4 |
| 20260506210015 | 14 | 228 | 3.2 | 9.7 | 0.03 | 0.08 | 0.08 | 89 | 1006.4 |
| 20260506205512 | 15 | 167 | 3.2 | 9.7 | 0.03 | 0.08 | 0.08 | 89 | 1006.5 |
| 20260506205012 | 15 | 230 | 1.6 | 9.7 | 0.03 | 0.08 | 0.08 | 89 | 1006.5 |
| 20260506204512 | 15 | 206 | 4.8 | 9.7 | 0.03 | 0.08 | 0.08 | 88 | 1006.6 |
| 20260506204011 | 15 | 183 | 1.6 | 12.9 | 0.00 | 0.05 | 0.05 | 88 | 1006.5 |
| 20260506203517 | 15 | 201 | 4.8 | 17.7 | 0.00 | 0.05 | 0.05 | 87 | 1006.7 |
| 20260506203011 | 15 | 200 | 3.2 | 17.7 | 0.03 | 0.05 | 0.05 | 87 | 1006.6 |
| 20260506202510 | 15 | 187 | 3.2 | 11.3 | 0.03 | 0.05 | 0.05 | 87 | 1006.6 |
| 20260506202009 | 15 | 185 | 3.2 | 19.3 | 0.05 | 0.05 | 0.05 | 87 | 1006.7 |
| 20260506201509 | 15 | 172 | 3.2 | 19.3 | 0.05 | 0.05 | 0.05 | 87 | 1006.7 |
| 20260506201008 | 15 | 195 | 3.2 | 9.7 | 0.05 | 0.05 | 0.05 | 87 | 1006.7 |
| 20260506200512 | 15 | 207 | 3.2 | 16.1 | 0.05 | 0.05 | 0.05 | 87 | 1006.7 |
| 20260506200008 | 15 | 211 | 4.8 | 16.1 | 0.05 | 0.05 | 0.05 | 87 | 1006.7 |
| 20260506195507 | 15 | 196 | 3.2 | 9.7 | 0.05 | 0.05 | 0.05 | 87 | 1006.8 |
| 20260506195007 | 15 | 185 | 3.2 | 9.7 | 0.05 | 0.05 | 0.05 | 87 | 1007.0 |
| 20260506194514 | 15 | 185 | 4.8 | 8.0 | 0.05 | 0.05 | 0.05 | 87 | 1006.9 |
| 20260506194007 | 15 | 203 | 1.6 | 12.9 | 0.05 | 0.05 | 0.05 | 87 | 1006.8 |
| 20260506193505 | 15 | 189 | 3.2 | 12.9 | 0.05 | 0.05 | 0.05 | 86 | 1007.0 |
| 20260506193005 | 16 | 188 | 1.6 | 11.3 | 0.03 | 0.03 | 0.03 | 85 | 1006.9 |
| 20260506192509 | 16 | 182 | 4.8 | 14.5 | 0.03 | 0.03 | 0.03 | 84 | 1007.0 |
| 20260506192008 | 16 | 188 | 8.0 | 14.5 | 0.00 | 0.00 | 0.00 | 83 | 1007.0 |
| 20260506191505 | 16 | 202 | 3.2 | 12.9 | 0.00 | 0.00 | 0.00 | 82 | 1006.9 |
| 20260506191005 | 16 | 207 | 4.8 | 22.5 | 0.00 | 0.00 | 0.00 | 81 | 1007.0 |
| 20260506190505 | 17 | 197 | 6.4 | 22.5 | 0.00 | 0.00 | 0.00 | 79 | 1007.1 |
| 20260506190006 | 17 | 208 | 6.4 | 19.3 | 0.00 | 0.00 | 0.00 | 78 | 1007.1 |
| 20260506185503 | 17 | 160 | 4.8 | 19.3 | 0.00 | 0.00 | 0.00 | 77 | 1007.1 |
| 20260506185003 | 17 | 209 | 6.4 | 17.7 | 0.00 | 0.00 | 0.00 | 76 | 1007.2 |
| 20260506184503 | 17 | 187 | 8.0 | 17.7 | 0.00 | 0.00 | 0.00 | 76 | 1007.3 |
| 20260506184003 | 17 | 176 | 6.4 | 19.3 | 0.00 | 0.00 | 0.00 | 75 | 1007.2 |
| 20260506183503 | 18 | 176 | 6.4 | 19.3 | 0.00 | 0.00 | 0.00 | 75 | 1007.1 |
| 20260506183003 | 18 | 181 | 6.4 | 19.3 | 0.00 | 0.00 | 0.00 | 74 | 1007.2 |
| 20260506182502 | 18 | 278 | 4.8 | 19.3 | 0.00 | 0.00 | 0.00 | 74 | 1007.2 |
| 20260506182002 | 18 | 185 | 4.8 | 19.3 | 0.00 | 0.00 | 0.00 | 74 | 1007.5 |
| 20260506181502 | 18 | 192 | 4.8 | 12.9 | 0.00 | 0.00 | 0.00 | 73 | 1007.6 |
| 20260506181003 | 18 | 190 | 4.8 | 12.9 | 0.00 | 0.00 | 0.00 | 73 | 1007.5 |
| 20260506180504 | 18 | 218 | 3.2 | 16.1 | 0.00 | 0.00 | 0.00 | 73 | 1007.6 |
| 20260506180001 | 18 | 211 | 6.4 | 24.1 | 0.00 | 0.00 | 0.00 | 73 | 1007.5 |
| 20260506175559 | 18 | 165 | 11.3 | 24.1 | 0.00 | 0.00 | 0.00 | 72 | 1007.6 |
| 20260506175103 | 19 | 197 | 8.0 | 16.1 | 0.00 | 0.00 | 0.00 | 72 | 1007.6 |
| 20260506174601 | 19 | 266 | 6.4 | 17.7 | 0.00 | 0.00 | 0.00 | 72 | 1007.6 |
| 20260506174100 | 19 | 164 | 8.0 | 17.7 | 0.00 | 0.00 | 0.00 | 71 | 1007.8 |
| 20260506173558 | 20 | 195 | 4.8 | 17.7 | 0.00 | 0.00 | 0.00 | 71 | 1007.9 |
| 20260506173059 | 20 | 196 | 4.8 | 17.7 | 0.00 | 0.00 | 0.00 | 71 | 1007.9 |
| 20260506172557 | 20 | 197 | 8.0 | 17.7 | 0.00 | 0.00 | 0.00 | 70 | 1008.1 |
| 20260506172055 | 20 | 157 | 6.4 | 20.9 | 0.00 | 0.00 | 0.00 | 70 | 1008.4 |
| 20260506171601 | 20 | 202 | 8.0 | 20.9 | 0.00 | 0.00 | 0.00 | 70 | 1008.2 |
| 20260506171056 | 20 | 214 | 8.0 | 17.7 | 0.00 | 0.00 | 0.00 | 70 | 1008.2 |
| 20260506170554 | 20 | 169 | 4.8 | 17.7 | 0.00 | 0.00 | 0.00 | 70 | 1008.0 |
| 20260506170105 | 20 | 173 | 8.0 | 17.7 | 0.00 | 0.00 | 0.00 | 69 | 1007.8 |
| 20260506165555 | 20 | 176 | 4.8 | 16.1 | 0.00 | 0.00 | 0.00 | 70 | 1008.2 |
| 20260506165054 | 20 | 197 | 8.0 | 16.1 | 0.00 | 0.00 | 0.00 | 69 | 1008.1 |
| 20260506164557 | 20 | 204 | 4.8 | 16.1 | 0.00 | 0.00 | 0.00 | 69 | 1008.0 |
| 20260506164053 | 20 | 173 | 6.4 | 16.1 | 0.00 | 0.00 | 0.00 | 69 | 1008.1 |
| 20260506163551 | 20 | 180 | 4.8 | 17.7 | 0.00 | 0.00 | 0.00 | 70 | 1008.6 |
| 20260506163110 | 20 | 214 | 6.4 | 17.7 | 0.00 | 0.00 | 0.00 | 70 | 1008.5 |
| 20260506162550 | 20 | 201 | 4.8 | 12.9 | 0.00 | 0.00 | 0.00 | 70 | 1008.6 |
| 20260506162053 | 20 | 166 | 4.8 | 14.5 | 0.00 | 0.00 | 0.00 | 70 | 1008.6 |
| 20260506161550 | 20 | 164 | 6.4 | 14.5 | 0.00 | 0.00 | 0.00 | 70 | 1008.7 |
| 20260506161049 | 20 | 197 | 8.0 | 19.3 | 0.00 | 0.00 | 0.00 | 69 | 1008.7 |
| 20260506160548 | 20 | 199 | 6.4 | 19.3 | 0.00 | 0.00 | 0.00 | 69 | 1008.8 |
| 20260506160049 | 20 | 162 | 4.8 | 17.7 | 0.00 | 0.00 | 0.00 | 68 | 1009.0 |
| 20260506155549 | 20 | 185 | 6.4 | 14.5 | 0.00 | 0.00 | 0.00 | 68 | 1008.8 |
| 20260506155046 | 21 | 190 | 3.2 | 14.5 | 0.00 | 0.00 | 0.00 | 68 | 1008.8 |
| 20260506154606 | 21 | 198 | 4.8 | 14.5 | 0.00 | 0.00 | 0.00 | 67 | 1009.0 |
| 20260506154044 | 21 | 187 | 4.8 | 14.5 | 0.00 | 0.00 | 0.00 | 67 | 1009.0 |
| 20260506153544 | 20 | 198 | 4.8 | 14.5 | 0.00 | 0.00 | 0.00 | 68 | 1009.0 |
| 20260506153050 | 20 | 180 | 4.8 | 14.5 | 0.00 | 0.00 | 0.00 | 69 | 1009.1 |
| 20260506152542 | 20 | 218 | 1.6 | 12.9 | 0.00 | 0.00 | 0.00 | 70 | 1009.0 |
| 20260506152040 | 20 | 211 | 4.8 | 16.1 | 0.00 | 0.00 | 0.00 | 70 | 1009.1 |
| 20260506151540 | 20 | 192 | 4.8 | 16.1 | 0.00 | 0.00 | 0.00 | 69 | 1009.2 |
| 20260506151039 | 20 | 202 | 3.2 | 11.3 | 0.00 | 0.00 | 0.00 | 69 | 1009.1 |
| 20260506150538 | 20 | 166 | 3.2 | 16.1 | 0.00 | 0.00 | 0.00 | 70 | 1009.1 |